RH
9 9 11 13 12 9 10 11 10 12 14 33 77 105 99 82 83 100 101 97 100 96 97 97 82 80 91 101 100 99 101 90 86 99 101 101 100 88 80 73 65 65 68 74 66 40 24 19 13 12 13 13 15 18 21 23 24 24 22 20 18 17 17 14 13 12 11 13 14 15 18 19 20 21 21 22 24 25 25 26 26 29 34 39 42 42
9 9 10 13 14 9 9 11 9 13 13 28 75 103 93 80 82 98 103 97 100 98 97 99 91 88 92 100 102 98 102 96 86 96 101 100 102 94 88 85 74 71 71 75 76 53 29 24 16 11 13 13 14 16 18 21 24 24 23 22 21 19 18 17 15 13 12 12 13 14 16 18 20 20 21 21 22 24 24 25 26 27 29 32 37 42
9 10 10 11 14 10 8 10 10 13 13 26 71 101 94 80 77 93 104 97 99 100 98 99 97 98 99 100 102 98 101 96 81 90 100 100 101 93 89 91 83 78 73 74 81 61 34 29 22 13 13 12 13 15 16 19 22 24 25 23 23 21 20 19 18 16 14 12 12 14 15 16 19 20 20 21 21 21 22 23 25 26 27 28 29 32
9 10 10 10 12 12 8 9 11 13 13 25 66 98 99 82 70 85 104 99 98 101 98 101 99 98 100 99 100 101 98 83 70 84 99 101 102 89 78 84 86 85 80 78 85 69 41 34 28 17 14 13 13 14 14 16 19 22 24 25 25 23 22 21 20 19 17 15 13 13 14 15 16 18 19 20 20 20 20 21 22 24 25 26 27 28
9 9 9 9 11 12 9 8 10 13 14 22 57 93 103 90 69 75 99 102 99 102 100 100 100 97 99 100 99 101 97 82 76 91 103 103 103 87 70 75 84 87 87 86 91 78 49 38 34 21 14 14 13 13 13 14 17 20 22 24 26 26 25 23 22 21 20 18 16 14 13 14 15 16 18 19 21 20 20 20 20 22 23 24 25 26
9 8 8 9 10 11 10 8 9 13 15 18 44 85 104 98 79 72 91 103 99 101 102 99 101 99 98 100 100 101 101 95 92 99 102 98 98 89 73 70 80 88 88 88 94 83 55 42 40 25 15 15 13 13 14 13 15 17 20 22 25 26 25 25 25 24 22 21 19 17 15 14 15 15 16 17 19 20 20 20 20 20 21 22 23 24
9 8 8 9 9 11 11 10 9 11 16 16 29 70 101 104 92 77 83 100 102 99 101 100 101 101 98 99 101 101 101 100 100 102 97 84 79 82 77 68 75 89 87 84 92 87 61 47 45 29 16 16 15 14 14 14 14 14 17 20 23 25 25 26 27 26 25 24 22 21 19 17 16 15 16 16 17 19 19 19 20 20 20 20 21 23
8 8 7 9 8 10 11 11 11 9 15 17 17 49 92 106 99 83 74 87 101 100 99 101 100 100 99 99 100 99 99 100 99 101 101 88 71 70 80 73 72 90 90 84 96 93 67 52 48 35 20 16 16 15 15 15 14 13 13 17 20 23 24 25 27 27 27 26 25 23 22 20 19 17 16 16 17 17 18 18 18 19 20 20 20 21
9 8 7 8 8 10 11 12 12 9 12 17 13 30 74 101 100 90 74 72 91 102 100 100 100 100 101 100 100 98 98 100 99 100 103 100 81 67 79 81 76 93 96 90 102 98 72 58 54 40 24 18 17 16 17 17 16 14 12 14 16 20 23 24 25 27 28 28 27 26 25 23 22 21 19 17 17 17 17 18 18 18 19 20 20 20
8 8 8 8 8 9 11 12 13 11 10 14 14 18 52 93 102 98 90 71 78 99 102 99 99 100 100 99 100 100 99 99 99 101 101 102 93 76 81 88 85 97 103 98 105 99 78 64 59 47 28 20 20 17 18 19 19 17 14 13 14 16 20 23 24 27 28 28 29 29 28 26 24 23 22 20 19 18 17 17 17 18 18 19 20 20
8 9 8 8 9 9 10 12 12 13 10 10 15 13 34 84 102 100 103 84 73 91 100 101 100 96 95 95 100 101 100 99 98 100 100 101 99 84 80 89 88 90 97 99 100 95 81 69 63 54 36 25 23 19 18 21 21 21 17 14 14 15 18 21 23 26 28 29 29 30 30 29 27 26 25 24 22 21 20 18 18 18 18 18 18 19
9 8 9 8 9 9 9 11 12 13 12 8 15 13 23 75 104 99 104 97 79 82 92 101 102 96 96 98 102 102 99 99 99 100 102 100 102 95 83 83 79 76 86 94 91 81 74 70 67 61 48 37 30 23 19 22 24 24 22 18 15 15 16 19 22 25 28 30 30 31 31 31 30 29 28 28 26 24 22 21 20 19 18 18 18 19
11 8 10 9 9 9 8 10 11 12 12 8 13 14 15 61 103 101 101 106 94 85 89 99 101 99 100 100 101 101 99 100 100 101 102 98 101 100 86 75 71 71 84 94 88 78 72 70 67 64 59 52 42 31 22 23 27 28 27 24 19 16 16 17 21 24 27 31 31 31 32 32 32 32 32 32 31 29 27 24 23 22 21 20 20 19
13 10 9 10 8 8 8 9 10 10 12 9 11 15 11 39 90 106 102 105 104 98 91 91 99 99 99 100 99 100 100 101 101 101 100 99 99 95 82 71 69 74 86 94 91 88 84 76 70 68 66 62 56 47 31 25 31 33 31 30 26 21 19 18 20 22 25 30 33 33 32 33 33 33 33 33 34 33 32 30 28 26 24 23 22 21
14 12 10 10 8 9 8 8 10 9 12 12 9 14 12 20 62 99 107 102 101 104 91 80 94 102 98 99 98 99 101 99 101 101 98 101 98 89 83 79 77 80 87 90 86 85 88 86 82 80 77 71 66 61 46 32 33 37 37 37 35 30 26 22 21 23 25 27 31 35 35 34 34 36 35 34 35 35 35 34 32 30 29 27 25 24
14 14 12 10 8 9 8 7 9 8 10 13 10 12 14 12 29 67 100 106 99 101 89 72 88 105 99 96 96 98 102 99 100 101 99 101 97 88 90 92 88 90 91 85 76 76 84 90 92 92 92 88 80 73 64 47 38 41 43 43 42 40 38 35 30 28 31 32 31 33 36 36 37 40 41 39 38 39 39 37 35 33 32 31 29 28
14 15 13 11 9 9 9 7 8 9 8 12 12 10 13 14 15 29 65 96 101 102 90 68 79 103 102 95 94 97 102 100 99 103 102 102 99 95 98 99 96 102 103 87 71 76 90 95 95 95 98 100 95 87 81 67 50 44 47 49 48 47 47 48 46 43 43 43 41 39 40 41 42 45 47 46 44 45 45 44 41 37 36 34 33 31
14 15 15 13 10 9 9 8 7 9 8 9 13 12 11 13 16 15 27 60 89 103 97 73 71 95 105 97 93 94 100 102 99 102 104 99 98 99 100 101 99 100 103 87 69 78 97 101 100 96 95 99 101 96 90 81 66 53 51 55 55 53 55 57 59 62 63 61 60 59 54 49 48 50 50 52 53 53 53 51 48 45 43 40 37 34
15 16 15 14 13 9 9 9 7 8 9 9 11 13 12 10 14 17 14 25 53 81 101 91 69 83 104 101 95 92 94 102 101 99 100 98 99 100 99 102 96 90 96 82 61 73 98 103 101 99 95 93 94 96 94 88 79 67 63 66 65 61 64 67 67 71 78 82 83 83 77 65 60 58 55 57 60 61 61 59 56 53 51 51 48 43
17 16 15 15 15 11 9 9 8 8 8 9 10 11 14 11 9 16 16 15 24 45 84 101 80 79 101 104 100 96 92 99 104 100 98 99 102 101 101 103 94 86 93 82 55 61 90 102 99 100 100 94 92 98 97 90 84 77 73 78 78 71 74 81 79 75 80 88 94 97 95 87 81 72 62 62 67 70 69 68 66 62 59 60 61 59
21 17 16 15 15 13 10 9 8 9 8 8 10 9 12 14 10 12 14 15 17 21 50 88 91 87 100 103 102 101 96 99 104 103 101 99 101 101 99 101 97 87 87 83 59 49 75 100 102 98 98 97 98 102 100 94 89 80 73 76 80 77 77 83 86 84 84 89 95 99 100 99 97 91 77 67 71 79 79 79 79 75 71 71 71 70
25 21 17 15 15 14 12 10 7 9 9 7 9 10 11 14 13 12 12 13 18 14 22 57 82 85 93 103 104 102 99 101 104 106 104 99 99 102 96 88 87 79 72 74 62 46 65 97 104 99 97 97 99 100 99 99 93 82 75 76 83 87 83 80 85 89 89 93 98 99 100 101 101 102 95 80 78 84 87 89 92 90 85 83 83 83
27 25 20 16 16 15 13 12 8 8 9 8 8 9 10 12 13 13 12 11 16 17 14 28 55 67 75 92 105 103 99 101 105 106 105 101 98 101 100 87 76 71 70 74 65 48 60 88 99 101 102 99 99 98 98 100 98 93 91 89 90 91 81 70 72 75 78 89 96 95 99 103 100 101 102 96 92 92 93 93 95 98 99 96 94 94
30 29 25 19 17 16 14 13 11 8 9 8 8 9 9 11 13 12 13 11 12 17 16 16 28 43 51 66 91 105 101 98 103 106 103 102 100 99 102 97 81 71 76 85 76 55 56 73 85 95 100 100 101 100 99 100 99 100 102 98 93 86 72 59 55 55 64 79 85 88 98 104 102 100 101 102 102 101 100 94 88 93 100 103 103 101
32 31 28 23 19 17 15 14 12 10 9 9 8 9 9 10 11 12 13 13 11 13 17 16 17 26 33 40 63 92 104 100 100 104 104 102 101 99 101 102 92 80 80 89 86 71 59 59 70 89 98 96 97 99 100 100 100 100 102 102 99 87 69 55 47 45 57 74 79 83 92 94 95 100 101 102 102 101 102 100 92 90 91 92 96 99
34 31 29 26 21 18 16 15 14 12 9 9 8 8 9 9 10 11 11 13 12 11 14 18 17 20 24 27 35 59 90 104 101 100 103 103 101 100 99 102 101 94 88 92 96 89 76 69 78 94 100 94 92 97 100 100 102 102 99 99 102 94 75 55 41 37 47 62 70 72 76 82 93 100 99 99 101 100 100 102 101 99 94 89 83 81
37 32 29 27 23 20 17 15 15 14 11 10 9 8 10 9 9 10 11 12 13 12 11 15 18 20 21 24 26 34 60 91 102 100 101 102 101 101 99 99 102 101 96 98 103 100 92 89 93 97 98 97 96 99 101 100 102 103 97 93 96 98 91 70 46 34 38 48 59 69 79 90 99 101 99 99 100 99 99 99 100 101 100 98 89 74
37 34 30 28 24 22 20 17 15 15 14 12 11 9 9 10 9 9 10 11 12 14 13 12 15 19 21 24 27 28 38 63 90 103 103 101 101 101 100 99 100 101 100 101 105 105 101 100 101 98 97 101 103 104 104 103 103 102 98 97 98 97 95 83 59 44 45 46 48 61 82 94 95 95 98 102 102 101 100 99 99 99 99 100 99 89
36 34 30 28 25 23 22 20 17 15 15 14 13 11 9 10 10 9 10 11 11 13 15 14 13 15 19 22 26 30 33 45 71 96 105 103 101 100 102 102 100 100 102 101 101 103 103 103 104 102 99 101 101 103 104 104 106 105 98 99 103 96 89 86 72 58 61 68 63 58 72 91 97 95 96 101 105 102 96 96 99 98 99 100 99 99
34 33 29 26 25 24 22 21 19 17 16 15 14 13 10 10 10 10 10 10 11 12 14 15 15 14 15 19 24 30 34 39 55 78 95 102 102 100 101 103 101 100 102 100 98 100 100 100 101 100 99 100 99 99 100 98 101 104 100 99 102 98 94 94 86 69 64 82 94 83 81 96 104 101 98 99 102 99 88 88 96 97 99 101 99 99
33 32 29 25 24 25 24 23 21 19 18 16 15 14 12 10 10 10 10 10 10 12 13 14 16 16 14 15 19 27 34 39 46 61 77 89 96 100 102 102 101 100 100 100 99 100 99 99 100 99 98 102 102 99 100 100 99 102 103 102 101 101 101 101 99 91 77 82 102 103 96 99 101 101 103 101 98 99 92 86 91 97 99 100 101 101
34 31 29 27 25 24 23 24 23 22 20 18 16 15 14 12 10 9 10 11 10 11 13 13 15 16 16 15 15 20 29 38 44 49 58 70 80 91 100 103 102 100 101 101 99 99 99 99 100 99 98 103 105 101 101 102 102 102 101 102 103 101 101 102 101 101 96 93 98 96 89 92 98 100 102 102 97 98 101 94 89 94 101 102 103 102
36 32 29 28 26 23 21 23 23 23 22 20 18 16 15 14 12 10 9 10 11 11 12 13 14 15 16 16 15 15 20 30 39 42 46 53 61 73 87 98 102 101 101 101 100 99 99 99 100 100 102 106 102 97 103 106 102 99 99 101 102 95 92 101 105 101 99 99 93 81 72 78 96 103 100 101 100 97 101 99 86 87 100 103 101 101
39 34 32 31 29 26 23 22 21 21 22 22 18 17 16 15 14 12 10 9 10 11 11 12 14 15 15 16 16 16 16 20 29 36 40 43 47 55 67 83 98 103 102 101 101 101 99 100 101 99 101 105 95 85 93 100 95 94 97 100 102 94 85 92 102 93 84 87 91 90 80 69 81 99 101 100 102 99 99 99 89 87 97 101 100 102
40 37 34 34 34 32 27 23 23 24 24 21 18 17 16 16 15 14 12 10 9 10 11 12 13 14 16 17 17 17 17 16 19 26 33 39 42 45 51 65 86 100 103 102 102 103 104 106 105 101 99 103 97 85 84 89 85 87 96 100 101 98 87 85 92 90 83 84 93 100 92 71 73 95 103 99 100 98 97 100 98 95 96 99 102 103
39 37 35 34 36 37 33 28 27 27 25 21 19 18 17 16 16 15 15 13 10 10 10 12 13 13 15 17 18 18 17 17 16 18 24 32 38 42 44 51 69 90 101 102 101 102 105 105 103 103 103 103 101 96 94 96 92 91 98 101 99 101 95 81 79 88 95 97 98 100 94 83 86 99 101 97 98 97 97 102 103 100 97 99 103 101
37 36 35 34 36 37 36 32 28 27 26 23 21 20 19 18 17 17 16 15 13 11 10 10 12 13 14 16 19 20 19 17 17 17 18 23 29 36 40 42 53 75 92 98 97 98 103 103 99 100 105 104 102 100 99 101 99 97 100 101 99 103 99 80 67 75 90 99 102 105 100 92 95 102 100 98 99 99 101 104 102 99 100 100 101 101
37 35 34 34 35 36 36 33 30 27 26 24 23 22 21 19 18 17 17 16 14 13 11 10 11 12 13 14 17 21 21 19 18 18 17 18 20 25 32 35 40 55 72 82 86 88 94 100 99 98 99 101 102 101 99 98 95 96 100 103 102 100 92 77 67 72 86 97 102 104 101 92 94 102 102 99 102 100 98 100 100 100 101 101 100 101
38 37 35 34 34 35 35 33 31 29 27 26 25 24 23 22 19 18 17 17 16 15 14 12 11 11 12 13 14 17 19 20 21 20 19 20 19 18 22 28 31 38 49 62 71 76 79 84 90 92 91 93 96 97 99 99 96 93 95 98 102 101 90 79 71 70 81 96 100 101 100 92 88 95 100 100 100 95 85 88 99 102 98 97 99 98
34 36 37 37 36 35 34 32 30 29 29 28 27 27 27 25 22 20 20 19 17 17 17 15 13 12 12 13 14 15 17 19 22 23 22 22 21 19 17 20 24 27 32 41 50 59 65 69 74 79 80 83 86 87 89 93 93 91 89 87 87 88 85 80 73 66 73 89 98 100 103 96 84 83 92 97 97 92 81 77 90 103 100 94 96 96
31 32 35 37 39 40 38 32 29 29 29 27 28 29 29 28 27 26 25 23 20 18 18 17 16 14 13 13 14 15 16 17 20 26 28 26 24 23 20 18 18 19 22 26 31 38 46 52 56 61 65 70 74 77 80 82 81 80 82 81 78 75 74 73 68 59 58 73 90 98 101 101 91 80 81 89 94 95 91 81 80 95 105 99 94 97
27 29 31 33 37 41 42 37 32 31 30 28 28 28 28 29 30 29 27 25 22 20 19 18 17 16 14 13 14 15 15 16 18 23 27 27 26 27 25 22 20 18 18 19 21 24 29 34 39 43 46 50 55 60 67 71 71 69 69 71 74 74 71 69 68 64 56 57 73 88 96 100 97 84 78 83 86 89 94 91 81 85 101 104 95 95
23 25 28 29 31 36 41 44 42 37 32 29 30 32 32 32 29 27 28 28 25 22 20 19 18 17 16 15 14 14 15 14 15 19 22 24 25 27 28 28 26 24 22 20 20 21 21 24 28 31 34 37 39 42 48 54 59 61 60 58 62 68 70 67 65 67 65 58 60 72 84 92 96 91 83 80 79 79 84 92 89 85 92 100 96 93
20 22 24 26 28 30 35 41 45 43 37 32 30 32 35 36 34 31 31 31 27 24 23 21 19 18 17 17 16 15 15 14 15 17 19 20 22 26 30 33 33 31 29 26 24 23 22 22 23 24 27 30 32 34 38 41 46 51 53 52 52 56 63 65 62 60 62 62 60 62 70 78 87 93 91 85 81 77 77 84 89 88 87 91 92 92
20 20 21 23 25 27 29 33 39 44 44 40 34 29 30 36 39 38 37 36 32 28 26 24 22 20 18 18 17 17 17 17 16 17 19 20 22 26 30 34 34 34 33 30 27 26 26 26 25 24 23 24 26 28 32 35 39 43 46 48 47 46 48 54 57 56 56 57 58 58 61 67 74 84 91 89 83 78 77 79 82 83 83 83 85 87
24 22 21 21 23 25 27 28 32 37 41 41 39 33 28 30 35 38 41 41 38 33 29 26 24 22 20 20 20 19 20 20 18 18 20 21 22 26 30 30 29 30 32 32 31 30 28 27 27 27 25 23 22 22 23 26 30 34 38 41 43 43 41 40 43 47 49 50 52 52 54 58 63 70 79 84 82 76 73 74 75 75 76 77 77 79
30 27 25 23 23 24 26 28 30 33 36 37 38 36 31 27 28 32 37 41 41 38 36 33 29 26 24 23 23 22 22 23 21 19 19 20 21 25 30 30 27 25 26 27 29 30 30 29 27 26 26 25 24 23 21 20 21 24 28 32 36 39 41 40 38 38 38 40 41 41 42 47 53 59 65 72 76 74 69 67 68 69 70 70 70 72
31 31 29 27 25 24 25 27 30 34 37 38 38 37 34 31 29 28 30 35 38 39 39 40 39 36 32 33 37 39 38 36 34 27 21 19 19 22 27 29 27 24 24 25 25 26 28 29 28 26 25 24 23 23 22 21 20 19 20 23 26 30 33 36 38 37 36 35 35 33 33 35 41 48 54 59 66 70 69 66 63 63 65 65 64 64
35 33 31 30 29 28 27 26 27 30 36 40 41 41 39 36 33 31 29 30 34 37 38 40 43 44 44 48 57 64 60 53 49 42 32 25 22 22 25 29 29 26 24 24 25 26 26 27 27 27 26 25 24 22 21 20 20 20 19 19 20 22 24 26 29 32 33 33 33 33 31 30 31 35 41 47 53 60 63 63 60 58 59 60 60 58
44 41 37 33 31 31 31 30 29 27 29 32 36 39 40 39 37 35 33 32 32 35 37 38 41 44 47 50 55 59 55 46 43 42 38 32 28 27 29 31 32 30 25 22 23 24 24 23 23 24 25 25 24 24 23 20 19 19 19 19 19 19 20 21 22 23 25 27 29 31 31 31 30 29 31 34 39 44 49 52 52 51 51 52 54 53
49 48 46 42 37 33 32 32 32 31 28 27 28 31 34 35 35 34 33 33 33 33 35 37 39 42 46 49 50 52 49 41 34 33 33 32 30 32 35 35 33 30 26 23 21 20 19 18 18 19 20 21 21 22 22 22 21 20 18 18 19 19 19 20 20 20 20 21 23 24 26 28 29 29 28 28 29 31 34 37 39 41 42 43 44 45
Wind_Speed
64 63 64 65 67 68 69 67 64 62 61 60 57 53 53 54 51 46 38 32 33 33 32 31 31 30 27 25 25 23 20 16 14 13 13 11 9 7 6 4 3 3 4 5 7 9 11 11 11 12 13 16 17 17 18 19 21 22 23 23 23 23 23 23 23 25 26 28 30 32 32 33 33 33 32 33 33 34 35 35 35 35 35 36 37 37
65 65 67 68 69 69 68 67 65 64 64 64 60 56 55 55 53 49 42 35 33 35 34 33 33 32 28 26 26 25 22 19 16 15 15 12 9 8 7 6 5 4 5 4 5 7 9 10 10 11 12 13 15 16 17 18 20 21 22 23 24 23 23 23 24 24 25 27 29 30 32 32 32 32 32 31 31 32 33 33 34 34 34 35 35 35
68 68 70 70 68 68 69 68 67 65 66 67 64 59 57 57 55 52 46 39 36 36 34 32 33 31 29 29 29 27 25 23 19 17 17 15 11 9 8 7 7 6 6 3 4 5 7 9 9 9 10 11 14 15 16 17 18 20 21 22 23 23 24 24 24 24 25 26 27 29 30 31 32 32 32 31 30 30 30 31 32 32 33 34 34 35
72 73 72 70 69 69 70 69 68 66 68 69 67 63 60 59 58 55 50 44 38 37 35 33 33 32 32 31 30 28 25 24 21 18 18 17 14 11 9 8 8 7 6 4 3 3 5 7 8 8 9 10 12 14 16 16 17 18 20 21 22 23 24 24 24 25 25 26 26 27 29 30 31 32 31 31 31 30 29 29 30 30 31 32 33 34
75 75 73 71 70 70 70 70 70 68 69 72 71 67 63 61 60 58 55 49 41 39 37 34 34 33 33 33 30 28 26 23 21 21 20 19 17 14 11 10 9 8 7 5 4 2 2 5 6 7 7 8 10 13 15 15 15 16 18 20 21 22 23 24 24 25 25 26 26 26 27 29 30 31 31 31 31 30 29 29 29 28 29 30 30 31
77 76 74 72 71 71 71 71 71 70 71 74 74 71 67 64 62 61 60 54 46 42 39 37 36 34 33 34 32 30 27 25 23 24 25 23 20 17 14 12 10 9 8 6 5 3 1 3 5 5 5 6 8 11 13 14 14 15 16 18 19 20 22 23 24 24 25 26 26 26 26 27 29 30 31 31 31 30 30 29 28 28 28 29 29 28
78 77 75 74 72 72 73 72 73 73 72 75 77 75 70 67 65 65 65 60 51 45 41 38 39 36 33 33 34 31 28 27 26 27 28 27 23 20 16 13 11 10 9 7 5 4 2 1 4 4 3 4 6 8 11 13 13 13 15 16 18 19 20 22 23 24 25 25 26 26 26 26 27 28 29 31 31 31 30 30 29 28 28 28 28 28
79 78 76 75 73 73 74 74 75 75 75 77 79 78 74 71 69 67 67 63 56 48 41 40 42 40 36 35 34 33 29 28 28 28 28 27 25 22 19 15 13 11 10 8 6 5 3 1 3 3 2 3 4 6 9 11 11 12 13 15 16 17 18 20 21 23 24 25 25 26 26 26 26 26 27 29 30 30 30 30 30 29 29 29 29 28
79 78 78 77 75 74 75 76 77 77 78 79 80 80 78 74 70 68 68 66 61 51 42 42 44 42 40 37 34 34 33 29 30 30 28 26 27 24 21 18 15 13 11 9 8 7 6 3 2 3 1 1 3 5 6 8 9 10 11 13 15 16 17 18 20 21 23 24 25 25 26 27 26 26 26 27 28 29 30 30 30 30 30 30 30 29
78 78 78 77 76 76 77 78 78 78 79 79 80 82 81 76 72 70 69 68 66 58 46 43 45 45 43 39 36 36 35 32 31 31 28 26 26 25 23 20 18 16 14 11 10 10 8 6 3 4 3 1 2 4 5 5 7 8 9 11 13 15 16 17 18 19 21 22 23 24 25 26 27 26 26 27 27 27 28 29 29 30 31 31 31 31
76 78 78 78 78 78 78 79 79 79 79 79 80 82 82 78 74 72 71 70 70 66 55 46 45 46 45 42 40 40 38 36 33 30 29 27 27 27 26 25 21 19 17 14 13 13 11 9 6 5 5 3 3 3 4 4 4 6 7 9 11 13 14 15 16 17 18 20 21 22 23 25 26 26 26 27 26 26 26 27 28 29 30 31 31 32
74 77 78 79 81 81 80 80 80 79 78 78 79 81 83 81 76 73 72 71 70 70 64 54 47 46 46 45 44 44 42 39 34 29 30 30 29 29 29 28 24 21 19 17 16 15 13 11 9 8 8 7 5 5 4 3 2 4 5 7 8 10 12 13 14 14 15 16 18 19 21 22 24 25 26 26 26 26 26 26 27 28 29 30 31 32
74 76 79 82 84 83 82 81 80 79 78 78 78 80 83 82 78 75 73 72 70 69 67 62 53 48 49 49 48 47 45 39 33 31 32 32 32 31 31 29 25 22 21 19 17 16 14 12 10 9 10 9 8 6 5 4 2 3 4 5 6 8 9 10 11 12 13 14 15 16 18 20 21 22 23 24 24 25 25 26 26 27 28 28 29 30
73 77 80 83 84 84 82 81 79 78 78 78 78 80 83 84 81 78 76 75 73 70 68 66 59 52 50 52 50 49 46 40 35 34 33 32 32 33 31 29 26 24 24 22 19 17 16 14 12 10 11 11 9 7 6 5 2 2 3 5 5 5 6 7 9 10 11 11 12 13 15 16 18 19 20 21 22 23 24 25 26 26 27 27 28 28
73 76 79 81 83 84 83 82 80 80 81 80 81 82 84 85 86 84 83 80 77 74 69 67 65 57 53 54 54 51 49 43 39 38 35 33 34 34 32 29 28 27 27 26 23 20 19 18 15 13 11 10 8 7 7 6 4 2 1 3 3 3 4 4 6 8 9 9 9 10 11 13 15 16 17 18 19 20 22 23 24 25 26 26 27 27
74 75 78 80 82 84 85 85 83 83 84 83 82 83 84 86 89 90 89 84 80 76 71 68 69 64 56 55 55 53 52 47 42 41 38 36 36 36 33 31 30 30 30 29 26 24 22 21 19 15 12 10 9 8 8 7 7 6 3 0 1 1 1 2 3 5 6 7 7 8 8 9 11 14 15 16 17 18 19 20 21 22 23 24 25 25
75 76 78 80 82 85 86 87 86 84 84 84 82 82 85 89 92 92 91 86 81 78 73 68 71 69 59 56 56 55 54 51 46 45 43 39 38 37 35 33 32 33 33 31 29 26 25 23 21 18 15 13 11 11 11 11 10 10 8 4 2 1 1 1 2 3 4 5 5 5 6 7 9 11 13 14 15 16 17 18 19 19 20 21 22 23
76 77 78 80 82 85 87 87 86 85 84 84 83 84 87 91 92 92 91 89 84 81 76 71 73 72 62 57 58 58 57 54 50 48 45 41 39 37 35 34 35 36 35 33 32 29 27 25 23 21 18 16 15 14 14 14 13 12 11 8 5 3 3 2 2 3 3 4 4 4 4 5 7 9 11 13 13 14 15 16 17 17 18 19 20 21
78 78 78 80 82 84 86 87 87 86 85 85 86 87 88 90 91 91 90 90 87 84 81 76 75 73 66 60 61 62 60 56 52 49 43 41 40 35 33 37 39 39 38 36 34 32 29 27 25 23 21 19 18 16 16 16 15 14 13 11 9 7 6 5 4 4 4 4 4 4 4 3 5 8 10 11 12 12 12 13 15 16 16 17 18 19
79 80 79 80 82 83 85 87 88 87 87 87 88 88 87 87 90 92 91 91 91 89 86 82 78 76 71 65 63 63 62 58 54 49 42 42 43 38 35 39 41 41 41 39 36 34 31 29 28 26 24 22 20 19 18 17 17 16 15 14 13 11 10 10 9 8 7 5 5 5 5 4 4 5 7 9 10 11 11 11 12 13 14 16 17 18
79 80 80 80 81 82 84 87 88 88 89 89 88 87 86 86 88 91 92 91 91 91 90 86 82 80 78 73 67 64 63 60 57 52 46 45 47 45 43 42 42 43 43 41 38 35 33 32 31 29 27 25 24 23 21 20 19 18 17 16 15 14 14 13 13 12 11 8 6 5 6 7 7 5 4 6 7 8 8 9 10 12 13 14 15 17
80 81 82 81 80 82 84 86 88 90 91 91 90 88 87 87 87 89 90 91 90 91 91 89 86 85 83 79 73 67 64 63 61 58 54 51 49 49 50 48 45 44 44 42 40 37 34 33 32 31 29 28 27 26 25 22 20 19 19 18 16 15 15 15 15 14 13 12 9 8 8 10 11 10 7 3 4 6 7 7 9 11 12 13 14 15
81 81 82 81 81 82 84 86 88 90 92 92 91 90 88 88 87 87 89 90 91 91 91 91 90 88 86 83 78 71 67 66 65 64 62 58 53 50 51 52 49 47 45 43 41 38 35 34 33 33 32 31 31 30 28 25 21 20 20 20 19 17 16 16 15 13 12 13 12 11 11 11 12 14 12 8 4 4 6 7 8 9 11 13 14 14
83 82 82 82 83 83 84 86 88 90 91 91 91 91 89 88 88 88 88 91 92 93 92 92 91 90 88 86 83 77 72 69 68 68 66 64 58 53 51 52 52 50 48 46 43 40 38 36 36 36 36 35 34 32 31 27 24 23 23 23 22 20 18 17 14 12 12 12 11 12 12 11 12 14 14 12 9 4 5 7 7 8 10 10 12 13
85 84 84 84 84 84 84 85 87 89 90 91 91 91 90 89 89 89 89 90 92 92 92 91 91 92 91 89 86 82 77 74 72 71 69 66 62 57 54 53 54 52 50 48 45 42 41 40 39 38 38 38 37 36 35 32 28 25 25 27 26 23 21 19 16 13 12 11 11 12 12 11 10 12 14 14 13 9 3 5 6 8 9 9 9 10
87 86 85 85 84 84 84 84 85 86 87 89 90 91 91 90 90 90 90 90 90 91 92 91 91 92 92 90 88 85 82 79 77 75 74 70 66 61 56 54 55 54 51 49 46 44 42 42 41 39 38 39 40 40 40 38 34 30 30 31 29 27 24 23 20 17 14 12 12 13 13 12 12 13 16 15 14 13 9 5 4 5 7 8 8 9
89 88 87 86 85 85 84 84 84 84 85 87 88 90 91 92 91 91 91 90 89 90 91 92 92 93 93 91 89 87 86 85 82 79 78 75 71 66 60 56 56 56 53 50 49 47 46 45 42 40 39 40 41 43 44 42 38 34 33 34 32 30 28 26 25 22 18 16 15 16 15 15 16 17 18 15 13 14 14 11 8 6 6 8 8 8
90 89 88 87 86 85 85 85 84 84 85 86 88 90 92 93 93 92 91 91 90 89 89 91 93 94 94 93 91 89 88 88 87 84 81 78 75 72 66 59 57 58 58 54 51 50 51 50 45 42 42 42 42 45 46 45 42 38 35 33 32 32 31 29 27 26 23 20 19 18 16 15 17 18 18 17 14 15 15 15 14 12 12 12 9 8
92 91 90 89 87 86 86 85 85 84 85 86 88 90 92 93 94 94 93 92 92 90 89 90 92 94 96 96 94 91 90 90 90 88 85 81 79 77 72 63 58 59 61 58 54 53 54 55 51 47 45 44 46 48 47 44 43 41 37 35 34 35 35 33 29 27 26 25 24 21 15 13 17 20 21 20 17 14 14 16 17 17 17 17 15 12
93 92 92 90 88 87 86 85 85 85 85 86 88 90 92 93 95 95 94 94 93 92 91 91 91 92 96 97 95 93 91 90 91 91 89 86 82 80 76 67 60 60 61 60 59 56 55 56 55 53 50 47 48 51 50 46 44 42 39 37 37 37 38 36 32 30 30 32 32 27 20 16 19 23 24 22 20 17 16 17 18 18 19 20 19 16
92 93 92 91 89 88 87 86 86 85 85 86 87 89 91 93 95 95 95 95 94 94 94 93 92 92 94 96 96 95 93 92 92 93 94 91 87 84 80 73 66 62 62 63 62 60 59 57 56 56 55 52 51 51 49 48 47 45 43 42 41 40 38 36 34 33 34 36 35 30 25 22 23 25 24 22 23 22 20 20 20 19 20 20 19 16
92 93 93 91 90 90 88 87 86 86 86 86 87 89 91 93 95 96 96 97 96 96 96 95 95 94 94 94 96 97 96 95 95 94 95 95 92 89 86 81 74 68 65 66 65 65 65 61 57 56 54 52 56 57 52 51 50 48 47 47 46 44 42 38 36 35 34 35 34 30 27 25 24 25 26 24 24 25 24 25 24 22 21 20 18 15
90 92 92 92 91 91 90 88 88 87 87 87 88 89 91 93 95 96 97 98 98 98 97 97 97 97 96 95 95 97 98 99 99 97 96 94 94 93 90 88 84 78 72 70 69 69 69 65 60 60 56 53 58 62 59 57 55 52 51 51 50 51 48 43 40 39 36 35 34 30 28 27 26 27 28 26 25 26 26 27 28 27 24 21 19 18
88 90 91 91 91 91 90 90 90 88 88 89 89 89 90 92 94 95 97 98 99 99 99 99 98 97 97 96 96 97 99 100 101 100 98 95 94 95 95 93 92 89 83 78 74 72 73 72 70 70 66 60 59 63 64 61 59 56 55 55 55 56 54 49 46 45 43 40 37 32 30 31 31 31 31 29 27 26 26 28 31 31 28 24 22 22
86 88 90 90 91 91 91 91 90 89 90 90 90 89 90 91 93 95 97 98 99 100 100 100 100 99 98 98 98 98 99 101 101 99 99 98 96 97 98 97 96 95 93 88 81 75 74 77 78 78 76 70 64 63 64 63 62 60 57 58 60 60 58 56 52 49 49 46 42 38 36 37 37 36 34 31 29 28 27 29 33 35 32 28 27 26
85 87 89 90 90 91 92 91 91 91 91 91 90 90 90 91 92 94 96 98 99 100 101 101 102 101 100 99 99 100 100 100 99 98 99 100 100 100 100 101 100 99 98 96 92 87 81 80 81 81 81 78 71 67 65 63 64 64 60 60 63 63 61 59 55 52 51 49 45 41 40 41 41 39 35 31 29 28 28 30 35 38 36 33 31 30
82 85 87 88 89 91 92 92 92 92 92 91 91 91 91 91 92 94 96 98 100 101 102 103 103 103 102 102 101 101 101 99 98 99 100 102 103 104 103 104 104 103 102 101 100 98 94 89 87 86 84 82 79 76 71 67 65 66 65 63 64 64 64 61 56 53 52 51 48 45 45 46 45 40 37 36 34 33 33 35 38 39 38 36 35 33
80 83 85 86 88 90 92 93 93 92 93 92 92 92 92 93 94 95 96 97 99 101 102 103 104 104 104 104 104 103 101 99 98 98 100 102 105 106 107 107 108 107 107 106 104 104 102 99 95 92 89 87 85 83 79 74 70 68 68 68 67 67 67 65 61 56 54 54 53 51 52 53 51 47 45 44 43 41 40 40 41 41 41 40 37 34
77 80 82 84 86 89 91 92 92 92 93 93 93 93 94 94 95 96 96 96 98 100 102 103 104 105 105 106 106 105 103 100 99 99 100 102 105 107 109 110 111 111 111 110 109 108 107 105 103 100 97 93 91 88 85 82 78 74 72 72 72 72 71 70 68 64 61 59 59 57 57 59 58 56 53 51 49 48 45 44 43 42 44 44 40 35
77 78 80 82 84 86 89 91 92 93 94 94 94 94 94 95 96 96 96 97 98 100 102 104 105 106 107 107 107 106 104 102 101 100 101 102 104 106 108 110 112 114 113 113 113 111 110 109 108 106 105 102 99 95 92 89 86 83 80 78 78 78 78 77 75 74 71 68 65 63 63 64 64 63 61 58 55 52 50 48 47 46 47 47 43 38
77 78 78 80 81 84 86 89 91 93 95 95 95 96 96 97 97 96 96 98 100 102 104 105 106 107 108 108 108 107 106 105 104 103 104 104 104 104 106 108 111 113 114 114 114 113 113 112 110 109 108 107 105 103 101 98 95 92 90 87 84 83 83 82 81 80 80 78 75 71 68 68 69 69 67 64 61 59 56 54 54 53 51 51 48 46
76 78 78 79 80 82 84 87 89 92 94 95 96 97 98 98 98 98 98 100 101 103 104 105 107 108 109 109 108 108 109 109 108 107 107 107 105 104 104 105 107 109 112 113 114 114 113 113 112 111 110 109 108 107 105 104 102 101 99 96 93 89 86 84 82 81 82 83 83 79 75 72 72 73 72 70 67 65 62 60 60 60 59 57 57 57
71 76 78 79 80 81 82 85 87 90 92 94 95 96 97 98 99 99 100 101 102 103 105 105 106 108 108 109 109 109 110 111 110 110 109 109 108 106 104 104 105 106 108 110 112 113 113 113 113 112 111 110 110 108 107 105 105 104 103 103 101 97 92 88 85 83 83 85 86 85 82 79 77 76 76 75 73 71 69 67 66 67 67 66 66 65
62 69 74 78 80 81 82 83 85 88 91 93 94 96 96 98 99 99 99 101 102 103 104 105 106 107 108 109 110 110 110 110 110 110 110 110 109 107 106 107 107 107 108 109 110 111 112 112 112 112 111 110 110 109 108 107 106 105 105 105 104 103 100 96 92 89 86 86 87 88 87 85 83 81 80 79 78 77 75 73 72 72 73 74 73 73
54 60 67 73 78 81 83 84 85 86 89 91 93 96 96 97 98 99 99 101 102 103 105 105 106 107 108 108 109 110 109 109 110 110 111 111 110 110 111 114 113 111 110 110 109 109 110 110 111 111 111 111 111 110 110 109 108 108 107 107 106 106 105 104 101 98 94 90 89 89 89 89 88 87 85 83 82 81 80 78 77 77 78 79 80 79
48 53 58 64 71 76 80 84 86 86 87 89 92 94 96 97 98 98 99 100 102 103 104 105 106 106 106 107 108 109 109 110 111 112 112 113 113 113 115 118 117 116 114 112 110 110 110 110 110 111 111 112 112 112 112 111 110 110 109 109 108 108 108 107 107 105 103 100 96 94 93 92 92 92 92 90 88 86 84 83 83 83 83 84 84 85
44 48 52 56 62 68 73 79 84 86 87 88 89 91 93 95 96 97 98 99 101 102 103 103 104 105 105 105 106 107 108 109 112 114 114 115 115 114 116 118 119 119 118 117 115 114 113 112 112 111 111 111 112 112 112 112 112 111 111 110 110 109 109 108 108 108 107 106 105 102 100 99 98 97 97 96 94 92 90 89 89 89 89 89 89 89
40 44 48 51 56 60 65 71 77 82 86 88 89 89 90 92 93 95 96 98 100 101 101 102 102 103 103 101 99 101 105 108 110 113 115 116 116 116 116 118 120 120 120 120 119 119 117 116 115 114 113 112 112 112 112 112 112 112 112 112 112 111 111 110 110 109 109 108 108 107 106 105 104 103 102 101 100 99 97 95 95 94 94 94 93 93
33 38 42 47 51 55 59 64 70 75 80 85 88 90 91 91 91 92 93 95 97 99 101 101 101 102 102 100 97 100 106 109 110 112 113 114 115 116 115 116 119 122 124 123 123 122 121 120 119 117 116 115 114 113 113 112 112 112 112 113 113 113 112 112 111 111 110 110 109 108 108 107 107 107 107 106 106 105 104 102 101 100 99 99 98 98
29 32 36 42 47 51 55 59 64 69 73 78 83 88 91 92 93 92 92 93 94 96 98 100 101 101 102 103 104 106 110 112 113 113 114 114 114 114 115 117 121 124 126 126 126 125 125 124 122 120 119 118 116 115 114 114 113 113 112 112 113 113 113 113 113 112 112 111 111 110 110 109 109 109 110 110 110 110 109 108 107 106 105 104 103 103
30 32 34 38 42 47 51 55 59 63 68 72 77 81 86 90 92 94 94 94 94 94 96 98 100 101 101 103 105 107 110 112 113 114 115 116 116 115 115 118 121 124 126 126 127 127 127 126 124 123 122 121 120 118 117 116 115 114 113 113 113 113 113 113 113 113 113 113 112 112 112 112 111 111 111 111 112 113 113 113 112 112 111 110 109 108
Wind_Direction
208 207 208 209 208 206 205 204 201 197 191 192 196 196 196 197 191 184 179 177 184 190 196 205 211 208 200 202 210 213 214 210 201 206 214 210 213 220 210 218 250 288 328 6 23 33 36 34 35 39 46 50 50 50 48 45 43 43 44 45 47 48 49 49 49 51 53 55 57 59 59 59 59 60 61 63 66 68 69 70 71 72 74 76 75 75
208 207 209 210 209 206 205 204 201 198 192 192 196 197 197 198 194 187 180 177 184 188 192 202 210 209 204 203 208 212 212 210 205 210 218 213 218 229 217 221 237 257 289 343 15 27 38 37 32 31 39 49 52 52 51 48 46 45 46 47 47 47 48 48 49 50 52 54 56 58 60 61 60 60 60 62 64 67 69 70 71 72 73 75 76 76
209 209 210 209 209 207 205 204 202 199 193 192 195 197 198 199 196 190 183 181 186 187 188 197 204 205 204 204 206 210 212 211 207 209 217 211 213 227 221 225 237 249 272 313 5 19 38 41 34 27 29 42 51 53 53 51 50 48 48 49 49 48 47 47 48 50 51 52 54 56 58 60 61 61 60 60 61 63 67 69 71 72 73 74 75 76
210 210 209 208 208 207 205 204 203 200 195 193 194 196 198 199 198 192 186 185 187 187 187 193 199 201 203 204 204 206 211 215 212 209 215 211 210 223 224 225 235 245 262 283 327 2 36 42 38 29 24 31 45 53 54 52 52 51 50 51 52 50 49 48 48 49 51 52 53 54 55 58 60 61 61 60 60 60 62 65 68 71 72 73 73 74
210 210 207 206 208 207 205 204 204 201 197 194 195 196 198 200 199 195 189 187 189 189 188 192 195 197 201 202 201 204 207 211 211 209 214 216 215 223 227 224 230 239 251 263 279 306 29 45 42 36 25 23 36 50 54 51 51 52 52 53 53 53 52 51 49 49 50 51 52 53 54 55 58 59 60 61 60 59 59 61 64 67 70 71 72 72
210 209 207 206 207 206 205 205 204 203 199 195 195 196 198 200 200 198 193 190 191 190 188 190 193 195 199 201 200 203 205 205 207 211 214 216 218 223 226 224 226 235 244 251 259 270 342 53 49 44 29 20 28 45 53 52 49 50 53 54 54 54 55 54 52 50 51 51 52 53 53 55 56 57 58 59 60 59 58 58 60 63 66 69 70 71
209 208 207 206 206 206 205 205 205 204 200 197 196 196 197 200 201 200 197 193 192 191 188 189 192 196 198 199 198 199 205 209 210 213 215 217 219 221 223 224 226 233 240 243 243 245 245 58 62 55 32 16 18 38 52 54 48 45 49 55 56 55 55 55 54 52 52 52 52 53 53 54 56 56 57 58 58 59 58 57 58 59 62 65 67 68
209 208 207 207 206 206 206 206 206 204 202 199 197 197 198 200 201 202 200 197 195 193 191 190 193 197 199 198 196 195 202 212 213 214 216 219 222 222 222 222 222 228 238 243 239 227 226 222 85 80 35 5 2 23 46 54 51 43 43 52 56 56 55 55 55 54 53 53 53 53 53 54 55 56 57 58 58 57 57 57 56 56 58 61 63 65
209 208 208 207 206 206 207 207 206 205 204 200 198 198 198 200 201 202 203 202 199 194 190 189 193 199 202 201 199 196 199 208 214 216 217 222 224 221 220 221 219 224 232 236 231 215 211 219 129 119 114 347 339 359 29 49 54 46 40 46 52 56 56 55 54 54 54 54 53 54 54 54 54 54 55 58 58 57 57 57 56 55 56 58 60 62
209 209 208 207 207 207 208 208 207 207 205 201 198 199 199 199 201 202 203 204 202 197 191 188 193 200 204 205 204 200 200 204 211 215 217 221 223 220 219 221 218 221 227 227 219 208 204 209 188 157 164 217 295 329 355 27 50 52 43 42 47 51 54 55 54 53 53 54 54 54 54 54 54 53 53 55 57 57 57 57 57 56 55 56 58 60
210 209 208 208 208 209 209 208 208 208 207 203 200 200 200 199 200 202 202 204 204 202 197 191 192 199 204 207 207 204 202 204 208 213 217 221 222 219 218 219 218 217 222 220 209 201 198 199 193 177 177 193 230 277 310 341 32 55 49 42 43 46 50 53 54 53 51 52 52 53 53 53 53 53 52 52 54 55 56 57 57 56 56 55 57 58
211 210 209 209 209 209 209 208 209 209 207 204 202 201 201 200 200 201 203 204 205 205 202 197 193 196 201 205 206 204 204 206 207 210 217 221 222 220 217 218 218 216 218 219 211 204 199 194 192 187 185 190 205 231 263 295 357 46 54 48 43 42 44 48 53 54 51 49 50 50 51 52 52 52 51 50 51 52 53 55 56 56 56 55 56 57
211 211 210 210 210 209 209 209 209 209 207 205 203 203 203 201 200 201 202 203 205 206 205 202 197 195 198 203 204 204 204 205 206 210 215 219 221 221 218 217 219 219 218 218 214 209 204 198 198 195 192 192 196 213 237 258 310 32 51 53 45 40 39 39 45 51 52 49 48 48 48 49 49 50 50 50 49 48 50 51 53 54 55 54 55 56
212 212 212 211 210 209 209 209 209 209 208 206 205 204 204 203 202 201 202 203 204 207 206 203 200 197 198 203 205 204 203 201 204 209 213 216 219 220 220 219 220 221 220 217 211 209 208 206 208 207 202 199 194 202 224 241 263 4 38 49 48 39 33 31 33 42 49 50 48 46 45 45 46 47 48 48 47 47 47 48 49 51 52 53 53 55
213 213 213 212 211 210 209 209 208 208 208 207 206 205 204 204 204 203 204 203 203 205 206 204 202 201 201 203 205 206 204 201 203 208 210 214 219 220 219 220 220 222 223 218 211 210 211 210 212 216 214 211 204 200 211 231 249 273 2 42 48 36 25 21 24 30 38 46 48 46 43 43 44 45 45 46 46 46 45 46 46 47 48 50 51 52
213 214 214 213 212 211 210 210 209 208 208 207 206 206 205 205 207 207 206 204 203 204 206 204 204 204 203 203 206 208 205 202 203 207 208 213 220 222 221 220 221 223 225 222 215 213 215 213 212 216 219 221 221 215 213 222 238 248 253 293 52 30 10 5 14 21 25 33 44 49 50 48 47 46 46 45 45 44 45 46 46 46 45 46 47 48
214 214 214 213 212 212 211 210 209 208 208 208 207 206 206 207 208 209 208 206 204 204 206 206 206 206 205 204 206 208 205 201 203 208 209 213 219 223 223 221 221 222 224 223 217 214 216 216 214 214 217 222 225 223 219 217 225 239 241 232 226 251 294 337 358 13 14 13 22 43 57 63 61 54 47 46 45 43 42 43 45 46 45 45 44 43
215 215 215 214 213 213 212 211 210 209 209 209 208 208 208 208 209 210 209 208 206 205 205 206 208 209 206 205 207 209 206 202 203 208 211 214 217 221 223 223 222 222 222 220 216 214 216 216 216 216 217 220 225 226 222 218 218 230 239 238 237 255 272 295 317 333 345 346 349 15 43 63 74 70 57 48 45 44 41 40 40 42 43 45 45 42
215 216 215 214 214 213 212 211 210 209 209 209 210 210 209 209 209 210 210 209 208 208 206 206 209 210 207 206 207 210 210 206 204 206 210 214 214 214 219 223 222 221 221 219 215 214 215 216 217 219 220 221 225 228 226 222 219 224 234 239 241 250 265 273 275 281 290 300 314 337 360 24 60 71 67 55 46 44 43 41 37 36 36 39 43 44
216 216 215 215 215 214 213 212 210 210 210 210 211 211 211 210 210 210 210 210 209 209 208 207 208 210 209 208 208 209 212 211 207 204 205 209 208 206 211 220 221 221 220 219 217 215 215 217 218 220 223 224 228 233 233 228 223 222 228 235 237 242 252 259 260 257 256 262 280 299 312 328 2 42 61 60 51 44 43 43 41 36 33 31 35 40
216 217 216 216 215 215 214 213 211 210 211 211 211 212 212 212 212 212 211 211 210 210 210 208 208 210 212 211 209 208 210 212 209 204 202 205 205 204 209 215 218 220 220 219 219 218 216 217 219 220 222 225 230 235 236 232 228 226 229 234 237 239 244 250 254 258 261 261 264 283 307 321 325 336 24 57 58 49 41 40 41 38 34 29 29 32
217 217 217 216 216 215 215 213 212 211 211 211 211 211 212 212 213 213 213 212 212 211 211 210 209 211 214 214 212 209 209 210 209 204 202 205 207 208 214 219 219 220 221 219 220 220 219 218 220 221 221 224 229 233 236 236 233 231 233 237 240 239 242 246 252 260 269 275 284 299 310 318 317 310 311 352 57 62 51 40 38 37 33 29 27 29
217 218 218 218 216 216 215 214 213 212 212 212 211 211 212 212 213 214 213 213 214 213 213 212 211 212 215 216 214 212 210 210 209 205 204 208 210 210 215 221 223 223 222 220 217 218 220 221 222 221 220 220 223 229 234 236 236 235 235 235 237 237 235 239 247 256 265 273 285 294 297 304 311 308 302 302 321 41 53 45 43 40 33 27 24 24
216 218 219 218 218 217 216 215 215 213 212 212 212 212 212 213 213 214 213 213 214 214 214 213 213 214 216 217 216 214 212 212 211 208 207 209 211 211 212 217 221 223 222 219 217 217 220 224 225 224 223 221 221 225 228 232 235 238 238 235 235 236 233 233 240 250 257 263 267 272 280 289 298 305 306 301 295 310 40 40 36 38 33 27 23 18
216 217 218 219 218 218 217 216 216 214 213 213 213 213 213 213 214 214 214 214 214 215 215 215 214 215 217 217 217 216 214 213 212 211 210 210 210 212 214 215 216 220 222 221 220 221 224 226 228 229 229 227 226 226 229 232 234 237 238 237 237 239 236 234 238 246 253 257 257 258 265 271 280 295 301 296 287 280 310 18 12 17 19 20 21 16
216 217 218 219 219 219 218 218 217 216 215 214 214 214 214 214 214 214 215 215 215 215 216 216 216 217 218 219 219 218 216 216 214 213 212 211 211 212 215 216 216 217 220 221 222 222 224 225 227 230 233 234 232 232 234 236 235 234 236 237 239 243 243 242 242 243 245 252 259 260 261 267 276 284 286 285 281 275 271 287 315 348 1 2 8 7
216 217 218 219 219 219 219 219 218 217 216 215 215 215 215 215 215 215 215 215 216 215 216 217 217 218 219 219 219 218 217 217 217 216 215 213 212 213 215 217 218 217 219 221 223 223 223 224 224 228 233 234 233 234 235 236 235 233 235 238 239 242 245 245 246 244 240 245 257 262 263 270 277 278 280 279 273 269 267 265 268 285 310 321 340 354
216 217 218 219 219 219 220 219 218 217 216 215 215 215 216 216 216 216 216 215 216 216 216 217 218 219 220 220 220 219 218 218 218 218 218 216 214 214 215 217 219 218 218 221 225 225 224 224 222 223 229 233 233 234 234 234 234 233 234 237 240 240 240 241 243 243 241 246 254 258 262 273 277 273 271 269 262 259 259 258 259 265 272 283 300 325
217 217 217 218 219 220 220 220 219 218 217 216 216 216 216 216 216 216 216 216 216 216 217 217 218 220 221 221 221 220 218 218 218 219 220 219 217 216 216 216 217 217 216 218 222 222 223 224 222 219 223 229 232 233 232 232 233 232 232 235 239 240 239 239 239 239 244 251 252 250 254 267 272 266 260 257 254 251 249 248 252 255 258 263 273 287
218 218 218 218 219 219 220 221 220 220 219 217 217 216 216 217 217 217 217 216 216 216 216 217 218 220 221 221 222 222 220 219 219 219 220 221 220 219 218 215 214 213 213 214 216 218 221 225 223 221 221 223 227 231 232 232 231 230 230 232 235 236 236 238 237 234 238 245 246 245 243 246 251 252 252 249 245 242 241 238 239 243 246 250 256 265
218 219 219 219 219 219 220 221 221 221 220 219 218 217 217 217 217 217 217 217 217 217 217 217 218 219 221 221 222 223 222 222 221 220 221 221 222 222 220 216 212 211 212 213 213 215 220 224 224 223 223 222 224 228 231 230 229 227 226 227 228 229 230 231 230 227 229 234 240 242 241 239 241 245 249 244 236 236 243 245 241 237 236 240 246 255
219 219 219 219 219 220 220 220 221 222 222 221 219 218 218 218 218 218 218 217 217 218 218 218 218 219 220 220 221 222 223 223 222 222 221 221 222 223 223 220 215 212 213 214 213 214 218 222 223 222 222 223 224 225 227 226 224 223 223 224 225 226 225 223 221 220 221 226 233 239 239 240 244 248 249 243 231 229 238 249 252 247 243 245 251 259
219 219 219 219 220 220 220 220 221 222 222 222 221 219 219 219 218 219 219 218 218 218 219 219 219 219 220 220 220 222 223 223 224 223 222 222 222 223 224 224 221 217 214 214 215 215 216 218 219 219 219 221 223 223 223 223 223 222 223 224 224 225 224 219 214 214 215 219 225 233 237 238 240 243 243 239 230 227 233 246 254 254 250 251 257 263
220 220 220 220 220 221 221 221 222 222 223 223 222 221 220 220 219 219 220 219 218 219 219 220 220 220 221 221 221 221 222 223 224 224 224 223 222 223 224 225 225 222 219 217 217 217 219 220 221 222 221 222 223 222 221 221 221 222 224 224 223 224 224 220 215 215 218 219 219 223 230 233 236 240 239 235 230 227 230 240 249 251 249 248 253 257
220 220 220 220 220 221 221 222 222 222 223 224 223 222 222 221 220 220 220 220 220 219 220 220 221 221 221 222 222 222 222 223 224 225 225 225 224 223 224 225 226 226 223 220 218 219 221 222 224 226 225 224 223 221 219 218 219 220 222 223 223 223 224 223 221 221 223 225 223 222 224 231 237 240 237 235 235 232 232 238 244 246 247 248 252 253
219 220 220 220 220 221 221 221 221 222 223 224 224 224 223 223 222 222 221 221 220 220 220 221 222 222 222 222 223 224 224 223 223 224 225 226 226 225 225 225 227 227 227 225 222 221 222 222 223 226 227 226 223 220 217 217 217 217 218 219 221 222 223 223 224 224 225 227 227 224 224 229 235 234 231 231 233 233 232 235 240 242 244 247 250 248
219 220 220 220 220 220 221 221 221 221 222 223 224 224 224 224 223 223 222 222 221 221 221 221 222 222 223 223 224 225 225 224 224 224 224 225 226 226 226 226 227 228 228 228 226 225 224 224 224 225 227 227 225 222 220 219 218 217 217 217 218 220 221 221 223 224 225 228 228 225 223 225 226 225 222 221 220 220 223 230 237 243 243 244 246 244
219 220 220 220 220 221 221 222 222 222 222 223 224 224 225 224 224 223 223 223 223 223 222 222 222 223 223 223 224 225 225 225 225 225 226 226 227 227 227 227 227 228 228 229 229 228 227 226 226 226 227 227 226 225 224 222 220 219 219 219 219 219 220 221 222 224 227 230 230 226 222 221 221 218 217 219 219 220 224 232 239 243 242 239 239 238
220 220 220 220 220 221 222 222 222 222 223 223 223 224 225 225 225 224 223 223 223 224 224 224 223 223 224 224 225 225 225 225 226 226 227 228 228 228 228 228 228 229 229 229 230 230 230 230 229 228 228 227 227 227 228 227 226 225 225 224 223 223 222 224 226 228 229 231 231 229 225 221 221 220 219 220 223 224 227 234 240 241 238 235 232 230
221 221 221 221 221 222 222 222 222 222 223 223 223 224 224 225 226 225 224 224 223 224 225 225 225 224 224 224 225 226 226 226 226 227 228 229 230 229 229 229 229 230 230 230 231 231 232 232 232 231 231 230 230 230 230 231 231 232 232 231 230 230 229 230 232 234 234 232 232 233 230 225 223 223 223 224 226 228 231 235 238 238 234 231 229 231
222 222 222 221 221 222 223 223 222 223 223 223 223 223 224 225 225 225 225 225 224 224 224 225 225 225 225 225 225 226 226 226 226 227 228 229 231 231 231 231 231 232 232 232 233 233 234 234 235 235 234 234 234 233 233 234 234 235 236 236 236 235 235 236 237 238 238 236 234 234 234 230 227 226 227 228 229 233 236 237 237 235 233 231 233 238
223 223 223 222 222 222 223 224 224 224 224 224 224 224 224 224 224 225 225 226 225 225 225 225 225 226 226 226 226 226 226 226 226 227 228 229 230 231 232 233 233 234 234 234 234 235 235 236 236 236 237 237 237 236 236 236 236 237 238 239 239 238 237 237 238 238 239 239 238 237 236 235 232 230 230 231 232 235 239 239 238 237 235 234 237 243
224 224 224 224 223 223 224 224 225 225 225 224 224 225 225 225 225 224 225 226 226 226 226 226 226 226 226 227 227 227 227 227 226 227 229 229 230 231 232 234 234 235 235 235 235 235 236 237 237 238 238 238 238 238 238 238 238 238 238 239 239 239 238 237 237 238 238 239 240 240 239 238 237 235 233 233 234 237 239 241 241 241 240 238 240 243
225 225 225 225 225 224 225 225 225 226 226 226 225 225 225 226 226 225 225 226 227 227 227 227 227 227 227 227 228 228 228 228 228 228 229 230 230 231 233 234 234 234 235 235 235 235 236 237 237 238 238 239 239 239 239 239 239 239 239 239 239 239 239 237 237 237 238 239 240 241 241 240 239 238 237 237 237 238 239 240 242 243 244 244 245 246
225 225 225 226 226 226 226 226 226 227 227 228 227 226 225 225 226 226 226 226 227 228 228 228 227 227 227 227 228 229 229 229 230 230 230 231 231 231 232 233 233 233 234 234 235 236 236 237 237 238 238 238 239 239 239 239 239 239 239 240 240 240 240 239 238 238 239 239 239 241 242 242 241 241 240 240 240 240 240 241 242 243 245 247 249 250
227 226 226 226 226 227 227 228 228 228 228 229 229 229 228 226 226 226 227 227 227 228 228 229 229 228 228 229 229 229 229 230 230 230 230 231 231 231 233 234 234 234 234 234 235 235 236 237 237 237 238 238 238 239 239 240 240 240 240 240 241 241 241 241 241 241 241 241 240 241 242 243 243 243 242 242 242 242 242 242 243 244 245 247 249 250
226 226 226 226 226 227 227 228 229 230 230 231 231 232 231 230 228 227 227 228 228 228 229 229 230 230 229 230 230 230 230 231 232 231 231 231 231 232 233 235 236 235 236 236 235 235 236 236 237 238 238 238 238 239 239 240 240 240 241 241 241 241 242 242 242 242 242 242 242 242 242 242 242 243 243 243 242 242 242 243 244 245 245 246 247 249
226 226 226 226 227 227 227 227 229 230 231 232 232 233 234 233 232 230 229 229 229 229 229 229 230 231 230 230 231 232 232 232 233 233 233 232 232 232 234 235 237 237 237 237 237 236 236 236 237 237 238 238 239 239 239 240 240 240 241 241 241 242 242 242 242 243 243 243 244 243 243 242 242 242 243 243 243 242 242 243 243 245 246 246 247 249
228 228 227 227 227 227 227 228 228 229 230 231 232 233 234 234 235 234 232 231 230 230 230 230 230 230 230 230 230 231 231 231 231 232 233 233 233 233 234 235 237 237 237 237 237 237 237 237 237 237 238 238 239 240 240 240 240 241 241 241 242 242 243 243 243 243 243 244 244 244 244 243 243 243 243 243 244 244 244 243 244 244 245 246 247 248
229 229 229 228 228 227 227 228 229 229 229 230 231 232 233 233 234 235 235 233 232 231 231 230 230 230 230 230 230 231 231 231 231 231 232 233 233 234 235 235 236 237 237 237 237 237 237 237 237 238 238 239 239 240 240 241 241 241 241 242 242 243 243 243 244 244 244 244 244 244 245 245 244 244 244 244 244 245 245 245 246 245 246 246 247 248
230 229 229 229 229 228 227 227 228 229 230 231 231 231 232 233 233 234 234 235 234 233 232 231 231 230 230 230 231 232 233 233 233 232 232 233 233 234 235 236 237 238 238 238 238 238 239 239 239 239 239 240 240 241 242 242 242 242 243 243 243 243 244 244 244 245 245 245 245 245 245 245 245 245 245 245 245 246 246 247 247 248 248 248 248 248